Location: site
(53.0000°N, 23.0500°E)
Time: 17:32:43
(UTC+01:00)

SAOCOM 1-A - Pass Details

Date: 18 January 2020
Orbit: 621 x 623 km, 97.9° (Epoch: 25 February)

Event Time Altitude Azimuth Distance (km) Brightness Sun altitude
Exits shadow 17:32:35 15° 28° (NNE) 1,696 ? -15.5°
Maximum altitude 17:35:59 47° 99° (E) 835 ? -16.0°
Drops below altitude 10° 17:40:10 10° 174° (S) 1,989 ? -16.6°
Sets 17:42:25 0° 180° (S) 2,890 ? -16.9°
